Wind_Speed
17 19 22 25 31 36 42 51 59 70 80 84 84 84 85 80 76 77 72 66 61 52 49 53 52 48 50 55 57 57 58 58 54 50 45 43 45 50 55 57 54 53 52 49 44 38 33 30 31 35 33 28 25 22 21 21 20 19 17 16 17 18 19 18 18 18 18 19 20 22 24 23 22 20 17 17 15 13 13 12 12 11 9 8 9
18 20 21 23 30 36 42 50 59 70 81 86 85 86 85 82 81 80 74 69 64 55 52 57 57 51 50 54 57 57 57 57 54 49 45 42 41 45 51 56 57 56 54 52 47 42 39 33 30 34 36 32 27 24 23 22 22 21 20 19 18 18 20 22 23 23 22 22 22 22 24 25 25 24 21 19 18 16 15 14 13 11 8 7 8
18 19 20 22 28 35 42 50 60 70 82 87 87 87 87 85 85 82 77 73 68 59 54 54 53 48 49 55 59 59 56 57 56 50 46 45 43 44 47 52 56 56 56 55 50 46 43 37 31 33 36 33 29 25 23 22 21 20 21 21 22 23 23 24 25 26 27 26 25 24 24 25 25 25 23 21 20 18 16 15 14 10 8 7 7
17 18 19 21 26 33 41 50 60 70 82 88 88 89 88 88 88 84 80 78 71 63 57 53 50 46 48 55 61 61 57 57 59 54 49 50 50 48 49 51 53 55 56 56 52 48 45 41 35 34 35 32 28 25 24 23 22 20 22 25 28 30 31 29 27 27 28 30 30 27 25 25 26 24 23 22 21 20 18 16 14 11 9 8 7
17 18 19 20 24 32 41 50 59 70 82 89 89 91 90 90 91 87 84 82 74 68 64 59 56 52 52 58 60 62 60 59 60 57 54 56 54 51 50 52 53 54 55 55 53 50 48 43 40 38 37 34 29 26 26 24 22 21 23 27 29 29 32 33 32 29 29 31 33 31 28 27 27 26 23 22 21 20 18 17 15 13 10 8 6
17 19 19 20 24 31 38 48 58 69 82 89 90 91 92 93 93 90 88 86 79 71 68 66 64 59 59 61 60 60 63 62 61 58 56 59 58 52 50 52 53 53 54 54 52 51 50 46 43 41 40 39 35 30 28 25 23 21 22 26 27 26 28 32 34 33 31 31 34 35 32 30 28 27 26 24 23 22 20 19 17 15 11 9 6
17 18 18 20 24 29 36 46 56 68 81 89 91 91 93 94 94 92 90 90 84 76 71 69 68 64 63 64 60 59 63 65 63 60 55 57 60 55 51 53 53 53 53 53 52 52 52 50 46 43 41 41 39 36 32 28 24 22 22 24 25 25 27 29 32 34 33 31 33 37 37 33 30 29 28 26 25 24 22 20 18 16 13 11 8
16 17 17 19 22 27 34 43 54 66 79 89 90 91 94 94 95 95 93 91 88 81 76 71 69 66 64 65 63 60 63 66 65 61 54 52 57 56 53 54 54 52 52 52 53 53 54 52 49 45 42 41 41 39 36 31 26 23 23 23 23 25 27 28 30 33 33 31 33 38 40 38 34 31 29 27 26 25 23 21 19 16 14 13 11
16 15 15 17 20 24 31 40 50 62 77 87 89 90 93 95 96 97 95 91 89 86 80 73 71 69 66 66 66 63 65 68 66 60 53 51 53 53 53 55 55 52 51 52 53 54 54 54 51 48 44 41 41 41 39 34 29 26 26 24 22 23 26 28 31 32 31 30 32 37 40 40 37 34 31 29 27 26 25 22 20 18 16 15 13
16 14 13 15 18 22 28 35 46 58 73 85 87 87 92 95 97 100 97 92 89 87 84 75 72 73 69 66 65 63 66 68 64 58 54 52 52 53 54 56 57 52 49 51 53 54 54 53 51 49 46 43 41 41 40 37 32 28 27 26 22 22 25 28 32 33 31 30 32 35 39 41 40 37 33 31 29 28 26 24 22 20 19 17 15
15 14 14 14 16 19 24 30 40 53 68 81 84 84 90 95 99 102 99 93 89 87 84 78 75 75 72 67 63 63 66 67 62 56 53 51 50 53 55 56 57 52 47 48 50 52 53 52 51 49 47 44 41 41 42 39 34 30 28 27 24 22 25 28 32 34 32 30 31 33 35 40 41 39 37 34 31 29 27 26 24 22 21 20 17
15 15 15 14 14 16 19 25 34 46 62 76 82 82 87 95 100 103 101 94 89 88 85 81 79 77 74 70 65 64 67 66 63 58 54 51 48 50 55 56 56 52 47 45 47 51 53 52 52 49 46 44 42 43 43 40 35 31 29 29 27 26 26 28 31 34 32 30 30 31 32 36 40 41 39 37 34 31 28 26 24 24 23 23 20
16 16 15 14 13 14 16 20 28 40 54 70 80 80 85 94 101 104 103 95 91 91 87 82 80 78 76 73 68 66 68 68 66 62 57 54 50 50 54 56 56 53 48 46 46 48 51 53 52 49 46 45 44 45 44 41 36 32 30 30 30 29 28 28 29 31 31 29 29 30 31 33 36 38 38 37 35 34 31 27 25 25 25 25 22
17 16 15 14 12 12 14 18 24 34 46 62 75 79 82 93 102 104 103 98 94 94 89 82 81 79 77 76 72 68 68 69 69 67 62 59 55 54 56 57 57 55 52 49 48 47 49 52 52 49 47 46 47 48 47 43 39 34 31 31 31 31 30 29 28 27 28 28 27 28 30 31 31 33 34 34 35 35 33 29 26 26 26 25 23
18 17 16 15 14 13 14 16 22 30 39 53 68 76 80 89 101 104 102 100 98 95 90 84 82 81 78 76 74 72 70 69 70 69 66 63 60 58 59 59 58 57 55 54 52 50 50 52 53 51 50 49 49 50 48 45 40 36 33 32 32 32 30 27 25 24 26 27 27 27 29 30 29 30 31 31 32 32 31 29 26 26 27 26 23
19 19 17 17 16 14 13 15 20 26 33 44 59 71 77 85 97 103 102 101 100 98 93 87 85 83 80 77 74 73 74 73 71 70 69 68 64 61 62 62 61 60 59 58 57 55 54 55 55 54 53 51 50 50 49 45 41 39 38 36 35 35 31 27 24 23 24 26 26 26 28 29 28 29 30 29 28 27 27 27 26 26 27 25 22
21 20 19 18 17 15 14 15 19 24 30 37 49 63 73 80 91 100 102 100 101 100 96 90 88 85 82 80 75 74 77 76 74 73 71 70 67 64 64 65 64 62 61 59 59 59 57 57 57 57 54 52 51 51 50 48 44 42 41 40 39 38 34 31 29 25 24 27 27 24 25 27 29 31 31 29 28 27 28 28 27 26 26 24 22
22 23 21 20 19 18 16 15 17 21 27 33 42 54 67 75 84 95 101 101 101 101 98 93 91 89 85 83 78 76 79 78 76 76 75 73 70 67 66 67 66 64 61 60 59 60 59 59 58 58 56 53 51 50 50 50 47 44 43 43 41 36 34 35 34 30 27 29 30 28 25 25 28 32 32 30 29 29 30 30 28 27 27 26 25
25 25 23 22 21 20 18 16 16 19 24 30 37 46 58 69 78 88 97 102 103 102 100 97 95 93 89 86 82 79 82 81 78 77 76 75 73 71 69 69 68 66 63 61 60 59 60 60 60 60 58 54 52 50 50 51 50 47 47 47 42 36 34 36 36 34 31 32 33 33 29 25 26 29 30 29 30 31 31 31 29 28 28 28 28
28 27 25 24 23 23 21 18 17 18 21 27 34 41 50 61 71 81 90 100 105 104 102 100 99 96 93 90 85 83 85 84 80 78 77 77 75 72 71 71 69 67 66 64 62 59 59 61 62 62 60 55 53 52 51 52 52 51 51 49 44 39 38 38 37 36 35 34 35 34 31 28 24 25 26 26 28 31 32 31 30 29 28 28 29
29 29 27 26 25 25 24 22 20 18 20 24 30 37 45 54 64 73 82 93 102 106 104 103 101 99 96 94 89 86 87 86 82 80 79 78 76 72 72 72 71 69 68 66 64 61 59 60 62 63 60 55 53 53 53 55 56 55 54 51 46 42 42 42 41 40 38 37 37 35 34 31 26 23 24 23 25 27 30 31 32 31 29 28 29
30 30 29 28 27 26 26 25 23 21 20 22 26 32 40 48 57 67 76 85 95 103 106 105 103 101 98 97 92 88 89 88 84 82 81 79 77 73 72 73 73 71 69 68 66 63 61 60 61 63 61 56 54 55 56 58 59 58 57 52 47 46 47 47 47 45 42 40 39 38 37 36 30 27 25 23 23 24 26 28 30 30 30 28 28
30 30 30 29 28 27 27 26 25 24 23 23 25 29 35 43 52 60 69 78 87 96 103 106 106 103 101 99 95 91 91 90 86 83 82 81 78 75 73 73 74 73 72 70 68 66 65 62 62 64 63 58 56 57 58 61 62 62 60 55 51 51 51 50 50 50 46 43 40 38 38 38 35 31 28 26 24 23 23 25 27 29 29 28 28
30 30 29 29 28 28 27 27 27 26 25 25 25 27 32 38 47 55 64 73 81 89 97 102 105 105 103 102 99 94 93 91 88 86 85 83 80 78 75 74 75 75 74 73 71 69 68 66 63 64 66 63 59 59 62 63 65 65 63 59 56 55 54 52 51 51 49 47 44 41 39 39 37 34 32 30 27 25 24 25 27 28 29 29 29
27 28 28 28 28 28 27 28 28 28 28 27 27 28 30 35 41 50 58 66 75 83 90 96 101 104 104 103 102 99 96 94 91 88 88 86 84 82 79 77 76 77 76 75 73 72 70 69 66 65 68 68 65 63 64 66 67 66 65 63 61 58 56 54 53 53 52 50 49 45 42 41 38 36 34 33 32 30 28 26 26 28 31 31 30
25 26 26 26 27 28 28 28 29 30 30 29 28 29 30 32 37 44 52 60 69 77 85 91 97 101 103 104 104 103 100 97 94 92 90 89 88 86 84 82 80 79 79 77 76 75 73 72 70 68 68 70 70 67 68 70 69 68 66 65 62 59 58 57 56 55 55 53 52 50 47 43 40 38 37 36 35 34 33 31 29 28 31 33 32
24 25 26 27 27 28 29 30 30 31 31 31 30 30 30 32 35 40 46 54 62 71 79 86 93 98 102 103 104 104 103 100 98 95 93 92 92 90 89 87 85 83 83 81 79 77 76 75 74 72 69 70 72 72 71 73 72 70 69 67 64 61 60 60 59 57 57 56 55 54 52 48 44 43 42 41 41 39 38 37 35 32 31 34 35
24 26 26 28 29 29 30 31 32 32 32 32 32 32 32 33 34 37 41 48 56 64 72 80 87 94 98 101 102 103 103 102 100 99 96 94 94 93 92 90 88 87 86 85 83 81 79 77 76 76 73 72 73 74 74 75 75 74 72 70 68 65 63 63 61 59 59 60 59 58 55 53 51 50 50 50 49 48 44 42 41 38 34 34 37
24 25 26 27 29 30 31 32 32 33 32 32 33 34 34 34 34 36 39 43 49 57 64 72 79 87 93 97 99 101 102 102 102 101 99 97 96 95 95 93 91 90 88 88 87 85 83 81 79 78 77 75 75 76 77 77 78 78 77 75 72 69 67 65 63 61 61 63 63 60 57 54 53 54 57 58 57 56 52 47 45 43 38 36 38
23 24 26 27 28 29 30 32 33 33 32 32 33 34 35 35 35 36 38 41 44 50 57 64 71 78 85 91 95 97 100 101 102 101 101 100 99 98 97 96 94 92 91 90 89 88 87 85 83 81 80 79 77 77 78 79 80 81 81 78 77 75 72 69 67 64 62 63 65 64 60 57 54 55 57 60 61 60 57 53 51 48 43 39 39
22 23 25 26 27 27 28 30 31 31 31 32 33 34 35 36 36 37 37 39 41 45 50 56 63 70 77 83 89 93 96 99 101 101 101 102 101 100 100 99 97 94 93 92 91 90 90 88 87 84 83 82 79 78 80 81 82 84 84 82 80 80 78 74 71 69 66 65 66 66 65 63 60 58 58 58 59 60 59 57 55 54 50 44 41
20 21 23 25 26 26 27 28 29 29 28 30 32 34 35 36 36 37 37 38 40 42 45 49 55 61 68 75 81 86 91 94 98 100 101 102 103 102 102 102 100 98 95 93 92 92 91 91 90 88 86 84 82 80 81 83 85 86 87 86 83 83 82 80 76 74 71 70 69 68 68 67 64 62 60 59 58 59 59 58 57 57 56 51 46
19 20 22 24 24 25 26 27 27 27 26 28 30 33 35 36 36 37 37 37 38 40 42 45 49 53 59 65 72 78 83 88 92 96 98 100 102 103 103 103 103 101 99 96 94 93 93 93 92 91 89 88 86 83 82 85 88 89 90 90 89 87 86 84 82 79 77 75 73 73 72 70 66 64 62 60 59 58 58 58 57 57 57 54 51
17 19 21 22 23 24 25 26 26 26 26 26 29 31 33 35 35 36 37 38 38 39 40 42 45 48 52 57 62 69 74 79 84 89 93 97 100 102 103 104 104 103 101 99 98 96 95 94 93 93 92 91 91 88 85 86 90 93 93 94 94 93 92 90 87 84 82 79 78 77 76 74 71 68 65 63 60 58 57 57 56 56 56 55 52
15 16 19 21 23 24 25 26 26 26 25 26 27 29 31 32 33 34 36 38 38 38 39 40 42 44 47 51 55 60 65 71 76 81 86 91 95 99 102 104 105 105 104 103 101 100 99 97 96 95 95 94 95 94 91 89 91 95 97 97 97 97 96 95 92 90 86 83 82 80 79 77 75 71 67 62 59 58 56 55 55 56 56 55 53
16 15 16 18 22 23 24 25 26 26 25 25 26 28 28 29 30 32 34 36 38 39 39 40 41 42 44 47 50 54 58 62 67 73 78 83 88 93 97 100 103 105 105 105 104 104 103 102 100 98 97 97 97 98 98 95 93 96 99 100 100 99 99 98 96 94 91 86 85 84 82 80 77 73 67 63 61 61 59 57 56 57 58 57 55
18 17 16 16 18 21 23 25 26 26 26 25 26 27 27 27 28 30 32 35 37 38 39 40 41 42 42 43 45 48 51 55 59 64 69 75 80 85 89 94 98 101 103 105 105 105 105 105 105 103 101 100 100 101 102 102 99 98 100 102 103 102 102 101 98 97 94 90 88 88 87 85 82 77 72 67 66 66 66 64 61 59 59 59 58
20 19 18 17 17 18 20 23 25 26 26 26 26 27 27 27 27 28 30 33 36 38 39 40 41 42 42 42 42 44 46 48 52 55 60 65 70 76 81 85 90 94 97 100 102 104 106 107 107 107 106 105 104 104 104 105 105 103 102 103 104 105 105 104 101 100 98 95 93 92 92 91 88 83 79 75 72 70 69 69 67 64 63 61 60
21 19 19 18 18 17 18 21 24 26 27 27 27 28 28 27 27 28 29 31 34 36 38 39 40 41 42 43 43 44 44 45 47 49 52 56 60 65 70 76 82 87 91 94 97 100 103 105 107 108 109 109 108 108 107 108 109 109 108 105 105 106 107 106 105 103 101 99 97 97 97 96 93 88 83 79 77 75 72 71 70 67 65 63 63
21 19 19 18 18 17 17 18 21 24 26 27 27 28 29 29 29 29 29 30 32 34 36 37 39 41 42 43 45 46 46 47 47 48 50 52 54 57 61 66 72 77 83 87 92 95 99 101 104 106 108 110 110 111 111 111 111 112 112 111 108 107 107 107 107 107 106 103 100 100 99 98 97 95 90 86 84 82 80 78 75 70 64 64 68
21 19 19 18 17 16 16 16 19 22 24 26 27 28 29 29 30 30 30 30 31 32 33 35 37 40 42 43 45 46 47 48 49 50 51 52 53 55 57 60 63 68 72 77 82 87 91 95 99 102 105 107 110 111 113 113 113 114 114 114 112 110 108 108 108 108 109 108 106 104 103 101 100 100 98 96 93 90 87 84 81 75 68 68 72
22 19 19 18 17 16 15 15 17 20 22 24 26 28 29 30 30 31 31 31 32 32 33 34 36 38 40 42 43 45 46 47 47 48 49 50 51 53 55 57 59 61 64 67 71 76 80 85 89 94 98 102 105 108 111 113 114 116 117 117 116 114 113 113 112 110 110 110 110 110 110 110 109 107 106 104 101 98 94 89 85 80 77 76 77
22 20 19 18 17 16 14 14 15 18 20 21 23 26 28 30 31 31 32 32 32 33 34 35 36 38 39 40 41 42 43 44 44 45 46 47 48 50 52 53 55 57 59 62 64 68 71 75 78 82 87 91 95 99 103 107 110 112 115 116 117 117 118 118 117 116 115 114 114 114 114 116 116 116 116 115 111 107 103 99 94 92 90 89 87
22 20 18 18 17 16 14 13 13 15 18 19 21 23 25 28 30 31 32 32 33 33 34 35 37 38 39 40 41 42 43 43 44 45 46 47 48 49 50 52 53 55 56 59 61 64 67 69 72 75 77 81 84 88 92 96 100 103 106 109 112 115 117 119 120 120 120 119 119 119 119 119 120 120 120 121 120 117 113 109 107 106 105 104 101
23 20 18 17 17 16 15 13 13 13 15 17 18 20 22 25 28 30 31 32 33 33 34 35 36 37 38 39 40 41 42 43 44 45 45 46 48 49 51 52 53 55 57 59 62 65 68 70 71 73 75 76 78 81 84 87 90 93 96 99 102 105 109 112 115 117 119 120 120 121 122 122 122 123 123 123 124 122 119 116 115 114 114 114 113
24 20 18 17 17 16 15 14 13 12 13 15 16 18 19 21 24 26 28 30 31 32 33 35 36 37 38 39 40 41 42 43 44 44 45 46 47 49 50 51 53 55 57 60 63 65 67 68 69 71 72 73 74 75 77 80 82 84 87 90 93 96 99 101 103 106 109 113 116 118 120 121 122 123 124 125 125 125 124 121 120 120 119 119 118
26 22 18 16 16 16 15 15 13 12 12 14 15 16 18 19 20 22 24 26 28 30 31 33 35 36 37 38 39 40 41 41 42 43 43 44 45 47 49 50 52 54 55 57 57 58 58 59 61 62 64 65 66 67 68 70 72 75 77 81 85 89 91 93 95 97 99 102 105 109 113 117 120 121 122 123 123 125 124 123 122 122 122 122 121
29 24 20 17 16 15 15 15 14 14 13 13 15 16 17 18 19 20 21 23 24 26 28 30 32 33 35 36 37 38 39 39 40 40 41 41 42 44 46 48 49 50 50 50 49 49 49 49 49 51 53 55 55 56 56 58 60 63 65 69 73 77 81 85 88 91 94 95 97 99 101 105 108 110 113 116 119 121 122 121 121 120 120 119 119
32 27 23 19 16 15 15 15 15 14 14 14 15 16 17 18 19 19 20 21 22 23 25 27 29 31 32 34 35 36 37 38 38 38 38 39 40 41 43 45 45 45 45 44 43 42 41 41 40 41 42 44 44 45 45 46 48 51 54 58 62 65 69 73 76 81 85 89 91 93 95 96 97 98 101 105 108 112 116 117 117 116 115 114 112
33 31 26 21 18 16 15 15 15 15 15 15 15 16 17 18 19 19 20 20 21 22 23 25 27 28 30 32 33 34 35 36 36 36 36 36 37 39 40 41 42 42 42 41 40 38 38 38 37 36 36 37 39 39 39 39 41 43 46 49 53 57 60 62 65 69 73 77 81 86 89 92 93 94 96 97 97 99 102 106 109 107 104 101 100
34 33 30 26 21 18 16 16 16 16 16 16 16 16 16 17 17 18 19 19 20 22 23 24 25 27 28 30 31 32 33 34 34 35 34 34 34 35 36 37 39 41 41 41 40 38 37 37 38 37 36 36 36 37 37 37 37 38 41 44 47 50 53 56 58 61 63 66 69 74 78 81 85 88 92 93 91 89 89 92 97 98 94 90 89
Wind_Direction
229 235 234 226 219 212 205 201 197 193 192 191 190 188 188 185 178 177 181 185 187 189 191 194 195 199 207 210 213 216 216 217 221 224 228 233 234 233 230 228 227 227 230 232 232 233 236 241 237 229 228 226 222 221 224 232 238 237 234 232 232 231 233 240 247 248 246 239 234 236 233 225 222 227 235 241 243 248 258 271 284 299 315 326 339
231 232 231 226 221 214 206 201 198 195 193 192 191 190 188 186 180 179 183 186 188 189 191 196 195 197 203 206 211 216 217 218 220 221 223 226 229 232 231 228 227 226 229 230 231 232 233 238 237 228 226 227 225 222 223 230 236 238 240 242 243 240 240 248 254 252 248 243 238 237 238 235 231 230 234 241 245 247 255 264 273 287 301 310 327
235 230 229 226 222 216 209 202 199 197 195 193 192 191 189 186 182 181 184 187 189 189 190 194 195 197 203 208 211 215 219 221 220 218 219 222 226 231 233 230 228 228 228 229 229 231 231 234 233 224 223 224 220 217 220 226 232 238 243 249 254 256 255 257 260 257 252 247 243 239 236 235 234 235 238 242 246 249 251 257 265 275 281 293 313
242 233 226 224 223 219 212 205 200 198 197 195 193 192 190 187 184 183 185 188 189 188 187 189 192 195 202 208 211 215 219 221 221 219 220 224 227 229 231 231 230 229 229 229 228 228 230 230 228 223 222 221 217 218 220 222 228 236 244 252 259 262 262 261 262 262 256 248 245 242 238 236 234 235 240 243 246 248 248 253 262 266 265 283 304
248 241 229 224 224 222 216 208 202 199 198 196 194 193 191 188 186 185 186 188 188 187 187 188 191 194 200 205 207 210 213 215 217 216 218 224 227 227 228 230 230 229 229 229 226 226 228 228 227 225 226 225 222 224 225 224 225 232 240 249 255 259 261 258 257 260 260 251 245 243 241 239 237 236 239 242 244 246 248 253 259 258 257 271 293
245 244 236 230 226 223 220 212 205 200 199 198 195 194 193 190 188 187 188 189 189 189 189 190 193 196 199 202 204 208 211 212 213 211 214 220 223 224 224 226 227 227 229 228 225 224 226 227 228 228 228 228 227 228 231 229 227 228 235 243 249 254 258 256 254 257 261 254 246 243 242 240 240 240 241 243 245 247 250 255 256 254 252 254 264
243 243 239 237 229 223 222 216 209 202 199 199 197 196 195 192 190 188 189 191 191 191 192 193 195 198 200 201 203 209 212 212 212 211 212 215 219 220 220 221 222 224 226 226 224 223 223 226 228 228 229 230 230 232 235 234 231 228 232 238 244 250 255 256 255 256 258 255 247 243 242 241 240 240 242 243 246 248 250 253 253 251 246 242 246
246 242 236 236 231 224 223 220 213 205 200 200 199 198 196 194 191 190 192 194 194 194 195 196 197 199 200 200 203 209 212 212 213 212 212 214 217 218 217 217 218 220 221 220 220 220 222 225 226 227 228 229 232 234 236 236 233 232 232 235 240 246 250 253 255 254 252 251 246 241 241 241 240 239 240 242 244 246 248 250 251 249 244 241 241
249 244 233 232 229 224 224 222 216 209 202 201 201 200 198 195 192 191 193 195 195 196 196 198 200 200 200 201 203 208 209 211 212 212 213 215 217 218 216 215 216 219 219 217 216 217 220 223 225 227 227 229 232 235 237 234 232 233 233 234 241 245 244 247 251 249 246 245 243 240 240 240 241 240 239 240 241 243 246 249 251 247 244 242 241
251 249 239 229 222 221 223 223 220 212 205 203 203 202 199 197 193 192 195 196 196 198 198 199 202 201 200 200 204 208 209 209 210 211 213 215 217 218 216 215 216 219 221 219 217 217 219 222 225 227 228 230 232 235 236 232 230 233 233 232 238 241 239 239 243 243 242 242 241 240 240 240 241 241 239 238 239 242 245 249 250 247 245 243 242
254 255 247 232 218 216 219 222 221 216 209 205 205 204 201 198 194 193 195 197 198 200 199 199 202 203 202 201 204 208 209 208 208 210 212 213 216 218 216 215 216 218 220 220 219 217 218 220 223 225 226 229 230 232 231 227 226 231 232 232 232 236 237 233 235 238 239 240 240 241 241 239 240 240 239 238 237 239 242 245 248 246 245 245 242
255 257 253 238 221 214 216 220 222 218 212 208 207 206 202 199 196 194 196 198 200 201 201 200 202 205 204 203 205 208 209 209 208 210 210 210 213 216 216 215 214 215 217 217 217 216 216 217 220 222 224 224 225 226 225 223 224 228 232 232 230 235 241 237 233 235 237 238 238 242 243 241 240 240 240 239 238 237 237 240 244 244 245 248 246
251 256 257 246 227 217 215 219 221 219 215 211 209 207 204 200 198 197 198 200 202 202 202 201 202 206 207 205 206 208 210 211 210 211 209 208 211 214 215 215 212 212 215 217 217 216 215 216 218 220 221 221 221 221 220 221 225 229 232 232 230 235 244 245 240 236 235 236 238 242 245 243 240 240 241 240 239 238 236 236 240 242 244 247 247
248 253 258 253 240 228 220 217 219 219 216 212 211 209 206 202 200 199 200 202 203 203 203 203 204 207 208 206 207 209 211 212 212 212 211 211 212 212 213 214 213 213 215 218 219 219 218 218 218 218 219 220 220 219 219 221 226 230 230 228 228 233 241 248 248 240 236 238 240 242 243 242 240 240 239 238 237 238 237 236 238 241 244 245 244
246 250 254 254 250 240 229 219 216 218 216 213 212 211 208 204 202 202 202 203 205 204 204 205 205 208 209 207 208 210 213 214 213 213 213 214 214 213 213 214 216 217 217 218 220 222 223 221 219 218 218 220 221 220 220 222 225 227 225 223 227 232 236 242 244 239 239 245 246 242 239 238 238 239 238 237 236 236 236 237 239 242 243 242 240
248 249 252 254 252 246 238 226 215 214 215 213 212 211 210 206 204 205 205 205 206 205 205 206 207 208 210 209 209 213 215 216 214 214 215 216 217 217 216 216 218 220 221 220 220 223 225 224 221 219 219 220 220 219 220 222 223 223 221 220 223 226 228 233 235 234 241 248 247 241 236 235 234 236 240 239 234 231 231 235 240 243 241 237 237
253 253 253 255 255 251 245 235 221 214 213 213 212 212 211 208 206 207 207 206 206 206 206 207 207 209 211 211 212 216 218 217 216 215 216 218 219 220 220 220 221 222 223 223 222 224 226 226 223 221 222 221 220 221 224 225 224 222 222 221 221 222 225 231 231 229 237 245 245 242 238 233 232 234 239 240 233 228 228 233 239 242 238 233 234
256 257 256 257 257 255 250 243 232 220 213 211 211 212 211 210 208 208 209 208 207 207 207 207 208 210 212 213 214 217 219 219 218 217 218 220 222 223 223 222 222 223 224 223 222 224 227 227 224 222 223 222 221 223 226 226 224 222 222 221 221 224 226 228 228 229 236 244 249 251 245 235 231 233 237 240 235 231 232 236 240 242 237 232 232
258 259 260 260 260 259 254 247 242 232 220 211 210 211 211 211 210 209 210 210 208 208 209 209 209 210 213 215 216 218 220 221 221 219 220 222 224 225 224 223 223 223 224 223 222 223 227 228 225 223 223 222 222 223 223 222 221 220 221 221 221 223 223 224 226 230 235 243 251 256 253 241 231 232 237 239 237 234 235 240 243 242 240 236 234
259 261 263 263 262 262 259 252 246 240 230 217 211 210 210 211 211 210 210 211 210 210 210 210 210 211 214 216 216 218 220 221 221 221 221 223 225 225 224 223 223 223 224 223 221 223 226 228 227 225 222 221 222 222 220 218 218 218 219 220 221 221 221 222 224 226 231 239 246 251 253 246 234 231 235 238 238 236 236 240 244 244 243 240 238
260 262 264 264 263 262 261 257 250 244 238 228 217 212 210 211 212 211 211 211 212 212 211 211 211 213 215 217 217 218 219 220 221 221 221 222 224 224 223 223 223 224 224 222 221 222 225 228 228 226 223 221 222 222 219 216 217 218 217 217 218 220 220 220 221 223 227 234 240 247 252 248 238 232 234 236 239 239 239 240 243 245 245 243 241
261 263 264 263 262 261 261 260 256 248 241 236 227 219 213 211 211 212 212 212 212 213 213 213 213 214 216 218 219 219 219 220 221 220 220 221 223 223 222 222 224 224 224 222 221 223 226 228 228 226 223 220 221 222 219 217 218 219 217 215 215 219 220 220 221 222 225 229 237 246 251 249 242 237 236 238 239 240 242 243 244 245 247 246 242
261 262 263 263 261 260 260 260 259 254 246 239 234 228 220 215 213 212 213 213 213 213 214 215 216 216 218 219 219 219 218 219 220 220 219 221 223 223 223 222 224 224 223 223 223 224 226 228 227 225 223 221 222 222 219 217 219 220 218 215 215 218 223 224 223 224 226 229 234 242 247 248 247 242 241 244 246 244 243 244 247 248 248 248 244
260 261 262 262 262 260 259 258 258 256 251 243 237 233 227 221 216 214 214 214 214 214 215 216 217 218 219 220 220 219 218 218 220 219 219 222 224 224 224 223 224 224 223 223 224 224 226 229 228 226 224 223 223 223 220 218 220 221 221 219 217 219 225 227 226 226 229 231 233 238 242 246 248 245 244 247 250 252 251 248 249 250 251 250 247
261 262 262 262 262 260 258 257 255 254 252 247 240 235 231 226 221 217 215 215 215 215 216 216 217 218 219 220 220 220 219 218 219 219 220 222 224 226 226 225 225 225 224 224 224 225 227 229 230 228 225 225 224 224 221 219 220 223 223 221 220 221 224 226 226 228 231 232 234 236 239 243 245 243 242 244 247 252 257 257 254 254 254 254 252
259 261 262 262 261 260 258 256 254 251 249 247 243 238 234 230 226 222 219 217 216 216 217 217 217 217 218 219 220 221 220 220 220 220 220 222 224 226 227 227 227 227 227 225 225 226 227 229 231 231 228 226 226 225 223 220 220 222 223 222 222 223 225 225 226 229 231 233 235 237 238 240 242 240 239 241 245 250 257 260 260 258 256 256 256
264 263 262 260 259 258 257 255 253 250 247 244 242 240 236 233 230 226 223 220 219 218 218 218 218 218 219 220 221 221 222 222 222 221 221 222 224 227 228 228 229 229 229 228 227 227 228 229 232 233 232 229 227 226 225 223 221 221 222 222 222 222 223 224 225 228 231 234 237 240 240 239 239 240 241 243 247 252 257 259 261 262 259 255 255
272 268 264 261 258 255 254 253 252 250 247 244 242 240 237 234 231 229 226 223 222 220 219 219 219 219 220 221 222 223 224 224 224 224 224 224 225 227 228 229 231 231 232 231 230 229 229 230 231 234 234 233 230 228 227 227 226 223 221 221 221 220 221 222 224 227 231 235 237 240 242 242 243 244 245 248 251 254 257 258 260 263 263 257 253
273 271 267 263 259 255 253 252 251 250 247 245 242 240 238 236 233 230 228 226 225 223 222 221 221 221 222 222 223 225 226 226 227 227 227 227 227 228 229 230 232 232 233 233 232 231 231 231 231 233 236 236 234 231 229 229 229 227 224 222 220 219 219 221 223 225 230 234 236 237 239 241 245 247 249 250 253 255 256 258 260 262 263 260 254
273 271 269 266 262 258 255 252 251 250 248 246 244 242 239 237 235 233 230 228 227 226 225 224 223 223 223 224 225 226 227 228 229 229 230 230 230 230 230 231 232 233 233 234 234 233 232 232 232 233 235 237 236 234 231 229 229 229 227 225 222 219 219 220 221 223 226 232 236 237 236 237 241 245 248 250 252 253 255 256 258 260 261 261 255
273 270 270 269 267 263 259 255 252 250 247 245 245 243 241 238 236 235 232 229 228 227 227 226 225 225 225 225 226 227 228 229 230 230 231 231 232 232 232 232 232 233 234 234 235 234 234 233 233 233 235 236 237 235 233 231 229 228 228 227 224 222 220 220 221 223 225 228 233 236 236 236 238 242 245 247 249 251 252 254 257 258 260 261 256
276 272 270 269 268 266 262 258 255 252 247 244 243 243 242 239 237 236 235 232 230 229 228 227 227 227 226 226 227 228 229 230 230 231 231 232 232 233 233 232 233 233 234 235 235 236 235 235 234 234 234 236 237 236 235 232 230 228 228 228 226 224 223 222 223 225 227 229 230 233 235 236 238 241 244 246 247 249 251 252 255 257 258 260 257
282 274 270 267 265 264 262 260 257 255 250 244 241 242 242 240 238 237 236 236 233 231 229 229 228 228 228 228 228 229 229 230 231 232 232 233 233 233 233 233 233 234 235 235 236 236 237 236 235 235 235 235 236 237 236 234 232 230 229 228 227 226 225 225 226 228 230 231 231 232 234 235 237 240 243 246 247 248 249 251 253 254 256 258 256
292 280 272 267 263 259 258 258 257 256 252 247 243 241 240 240 239 238 238 238 237 235 232 230 229 229 229 229 229 229 230 230 231 232 233 233 234 234 234 234 235 235 235 236 237 237 238 238 237 237 236 236 236 237 236 235 233 232 230 230 230 229 228 228 229 230 232 233 232 232 233 234 235 237 241 244 244 243 245 248 250 252 254 255 253
304 290 276 268 262 257 253 253 255 255 253 249 244 241 240 239 239 238 238 238 238 238 235 233 230 230 229 229 230 230 231 231 231 232 232 233 234 235 236 236 236 237 237 238 238 239 239 240 240 239 238 237 236 237 237 236 235 234 233 232 232 232 232 231 232 232 233 233 234 234 234 235 236 237 240 242 242 240 240 243 247 250 252 252 251
307 299 285 271 262 257 252 251 252 254 252 248 245 242 241 239 238 237 237 237 237 238 237 235 233 231 230 229 229 230 231 232 232 233 233 233 234 235 236 237 238 239 239 239 240 240 241 241 240 240 239 239 238 237 237 237 236 235 235 235 234 234 234 234 234 235 234 234 234 235 235 236 236 237 239 241 242 241 240 241 243 246 248 249 249
309 305 298 285 269 259 253 251 251 252 250 247 243 242 242 240 238 237 236 236 235 236 237 237 236 234 233 232 230 230 231 232 233 234 235 235 235 236 236 238 239 240 240 241 241 242 242 242 241 241 240 240 239 238 238 238 238 236 236 236 236 236 235 235 236 236 236 235 235 236 237 237 237 237 237 239 241 243 243 242 241 242 245 246 247
314 308 304 298 285 268 256 250 250 250 250 247 243 242 242 241 240 238 237 236 235 235 235 236 236 236 236 235 233 232 231 232 233 234 236 237 237 238 238 238 240 240 241 242 242 243 243 243 243 242 242 241 240 240 239 238 238 238 237 236 237 237 238 237 237 237 238 237 237 237 238 238 239 239 238 238 240 241 242 242 241 240 241 242 244
316 307 301 298 293 280 263 252 248 248 248 247 245 243 243 242 241 239 239 238 237 235 235 236 236 236 237 237 236 235 235 235 235 236 237 238 239 239 239 239 240 241 242 242 243 243 244 244 244 244 244 243 241 241 240 239 239 239 239 238 237 237 238 239 238 238 238 238 238 238 238 239 239 239 238 238 239 241 242 243 243 242 239 239 240
316 308 299 295 293 286 274 259 249 247 246 246 245 244 243 243 242 241 239 239 239 238 237 237 237 238 238 238 238 238 238 238 239 240 241 241 241 241 240 240 240 241 242 243 244 244 245 245 246 246 246 245 244 243 242 241 240 240 240 239 238 238 238 239 239 239 239 239 239 238 238 239 239 238 238 238 239 241 242 242 243 242 239 237 238
317 310 302 295 291 288 281 269 257 250 246 245 245 245 244 243 242 241 240 240 239 239 239 239 239 240 240 240 240 241 241 242 242 243 244 244 244 243 243 243 242 242 242 242 243 244 245 246 246 247 247 247 247 246 245 244 243 242 242 241 240 239 239 239 240 240 240 241 240 240 240 240 240 240 240 239 240 241 243 243 243 241 237 236 237
320 314 306 298 293 289 284 275 264 256 250 246 244 244 244 244 243 242 241 240 239 239 239 240 241 241 242 242 243 243 244 244 244 245 245 246 246 246 246 246 245 245 245 244 244 244 244 245 245 246 247 247 247 248 248 247 246 245 245 244 243 242 241 241 241 242 242 242 242 242 242 242 242 242 243 242 241 241 243 244 245 244 241 240 241
323 317 310 303 297 292 288 281 269 261 255 249 245 244 244 244 244 243 242 241 240 240 240 240 241 242 243 244 245 245 246 246 246 247 248 248 248 249 249 249 249 248 248 248 248 247 247 246 246 246 246 247 247 247 248 248 248 247 247 246 245 244 243 243 243 244 244 245 244 244 244 244 245 245 245 246 245 244 243 243 244 245 244 245 245
327 321 313 305 300 296 292 287 277 267 259 253 247 244 243 243 244 244 244 243 243 242 242 242 242 243 245 245 246 247 248 248 249 249 250 251 252 252 253 253 252 252 252 253 253 252 252 251 249 248 247 247 247 246 246 247 248 248 248 247 247 246 245 244 244 245 245 246 246 245 245 245 245 245 246 247 247 247 247 246 246 247 247 248 249
332 326 317 308 303 300 296 292 286 276 267 260 252 247 244 244 244 245 245 245 245 244 245 245 245 246 247 247 248 249 250 251 251 251 252 254 255 255 256 256 256 256 256 257 257 256 256 255 254 253 252 250 249 248 247 246 246 247 247 247 247 246 246 245 245 244 244 245 246 246 246 245 245 245 245 246 247 248 248 248 249 249 250 251 252
339 331 322 312 306 303 300 296 293 285 276 268 261 255 250 247 246 246 246 246 245 245 246 247 248 249 249 250 251 251 252 253 254 254 255 255 256 257 258 258 259 259 259 259 258 257 256 256 255 255 254 253 252 251 251 249 248 247 246 246 246 246 246 246 245 245 244 244 245 245 245 245 245 245 245 245 246 247 248 248 249 249 250 251 252
346 338 328 317 309 305 303 300 298 294 285 277 270 264 260 256 253 251 250 250 248 247 246 247 249 251 252 252 253 253 254 254 255 256 256 256 257 258 259 260 261 262 261 259 257 255 253 253 253 253 253 252 252 252 252 251 250 249 248 247 246 245 245 244 244 244 244 244 244 245 246 246 246 246 246 246 246 247 247 248 249 249 250 250 251
353 346 336 324 313 306 304 303 301 299 295 288 279 273 268 265 261 258 257 256 255 253 252 251 252 253 254 256 257 257 257 257 258 258 259 259 260 261 263 264 264 264 261 258 255 253 251 250 251 252 252 251 251 251 251 252 252 251 249 248 247 246 245 244 243 243 243 243 243 244 246 247 248 248 248 248 247 247 248 248 248 249 249 250 250
358 354 345 333 319 309 304 302 301 300 298 293 287 280 274 271 268 266 264 262 261 261 260 259 258 258 258 259 261 262 262 262 262 262 262 262 263 264 266 267 266 264 261 258 256 255 254 254 255 256 257 256 254 253 253 254 255 254 253 251 249 247 246 244 243 242 242 241 242 242 243 245 247 249 249 249 249 249 248 248 248 248 249 249 250
2 0 355 344 330 316 306 301 300 299 297 294 290 284 278 273 271 270 269 268 267 266 265 264 264 264 263 264 264 265 266 266 266 265 265 265 266 268 269 268 267 264 261 259 258 258 258 260 260 262 264 264 263 261 260 260 260 259 257 255 253 250 248 246 244 242 241 241 241 241 242 243 244 246 248 249 250 251 251 250 248 248 248 248 248
5 4 2 356 345 329 314 304 299 297 295 293 290 286 280 276 273 271 271 271 271 271 270 268 267 267 267 267 267 267 268 269 270 270 269 268 269 270 271 269 266 263 261 259 259 259 260 262 264 264 265 266 267 267 266 265 264 262 259 256 254 252 250 248 247 245 244 243 242 242 242 243 243 244 246 247 248 249 250 249 247 245 245 245 246
Height
10560 10560 10561 10564 10566 10570 10574 10579 10583 10587 10593 10600 10607 10614 10620 10627 10633 10639 10645 10653 10659 10665 10670 10672 10674 10677 10681 10686 10690 10692 10695 10699 10702 10705 10708 10710 10711 10713 10715 10719 10723 10726 10730 10734 10739 10742 10745 10747 10749 10752 10754 10756 10757 10758 10759 10761 10764 10766 10766 10768 10770 10772 10774 10776 10778 10781 10783 10784 10784 10785 10785 10786 10786 10786 10786 10786 10787 10787 10787 10786 10786 10786 10786 10785 10784
10557 10557 10559 10561 10563 10566 10570 10575 10579 10583 10586 10592 10599 10608 10615 10621 10627 10632 10639 10646 10651 10656 10660 10662 10664 10667 10672 10678 10681 10685 10689 10694 10698 10701 10703 10704 10706 10708 10710 10714 10718 10721 10725 10730 10734 10738 10741 10743 10746 10748 10751 10754 10755 10755 10756 10758 10761 10763 10765 10767 10769 10771 10773 10775 10777 10779 10781 10783 10783 10783 10783 10784 10784 10784 10784 10784 10785 10786 10785 10785 10785 10785 10784 10784 10783
10553 10554 10556 10558 10560 10562 10566 10570 10574 10577 10581 10586 10593 10600 10608 10615 10620 10625 10632 10638 10644 10649 10654 10659 10661 10662 10667 10671 10675 10680 10684 10687 10691 10696 10698 10700 10701 10703 10705 10709 10713 10717 10721 10725 10730 10733 10736 10739 10742 10745 10748 10750 10752 10753 10754 10755 10758 10760 10762 10765 10767 10769 10771 10773 10775 10777 10779 10781 10782 10782 10782 10782 10782 10782 10782 10783 10783 10784 10784 10784 10783 10783 10783 10782 10782
10550 10551 10554 10556 10557 10559 10561 10564 10569 10572 10575 10581 10588 10594 10601 10608 10614 10619 10625 10631 10637 10643 10649 10655 10658 10659 10662 10665 10668 10673 10677 10680 10685 10690 10694 10695 10696 10697 10700 10703 10708 10712 10716 10720 10725 10729 10732 10735 10738 10742 10745 10747 10749 10750 10751 10753 10754 10756 10759 10762 10765 10767 10769 10771 10773 10775 10776 10778 10780 10780 10780 10780 10781 10781 10781 10781 10781 10782 10782 10782 10782 10781 10781 10781 10781
10547 10548 10551 10553 10554 10554 10556 10559 10564 10567 10570 10575 10583 10589 10596 10602 10608 10613 10619 10625 10631 10637 10641 10645 10648 10651 10654 10657 10660 10664 10668 10672 10677 10683 10687 10689 10690 10693 10696 10698 10702 10706 10710 10715 10721 10724 10727 10731 10734 10737 10741 10744 10746 10747 10749 10750 10751 10753 10755 10758 10761 10764 10766 10768 10770 10772 10774 10776 10777 10779 10779 10779 10779 10779 10779 10779 10779 10780 10780 10780 10780 10780 10779 10779 10779
10545 10546 10547 10550 10550 10551 10552 10555 10558 10562 10566 10571 10578 10585 10591 10598 10603 10608 10613 10619 10625 10630 10634 10636 10639 10644 10648 10652 10657 10660 10662 10665 10669 10675 10679 10681 10684 10688 10692 10694 10697 10701 10705 10710 10715 10719 10723 10726 10729 10733 10736 10740 10742 10744 10746 10747 10748 10749 10751 10755 10757 10760 10762 10764 10766 10769 10771 10773 10774 10776 10777 10777 10777 10777 10777 10777 10777 10777 10777 10777 10777 10777 10778 10778 10777
10543 10544 10545 10546 10547 10548 10549 10550 10554 10558 10561 10566 10573 10580 10586 10593 10599 10603 10607 10613 10619 10624 10629 10632 10636 10641 10644 10648 10654 10657 10659 10661 10665 10668 10671 10674 10678 10683 10687 10690 10693 10696 10700 10704 10710 10714 10718 10722 10725 10729 10732 10736 10738 10740 10742 10744 10745 10747 10749 10752 10754 10757 10759 10761 10763 10765 10768 10770 10771 10773 10774 10775 10775 10775 10775 10775 10775 10775 10775 10775 10775 10775 10775 10776 10776
10541 10541 10543 10543 10543 10545 10546 10547 10550 10554 10558 10562 10568 10575 10582 10588 10594 10599 10603 10607 10613 10619 10624 10629 10633 10638 10641 10644 10647 10649 10653 10658 10662 10665 10668 10672 10676 10680 10683 10686 10689 10692 10695 10699 10705 10709 10714 10717 10720 10724 10728 10732 10734 10736 10738 10741 10743 10745 10747 10750 10752 10754 10756 10758 10760 10762 10764 10766 10768 10769 10770 10771 10772 10773 10772 10773 10773 10773 10772 10772 10772 10772 10773 10773 10774
10538 10539 10540 10540 10541 10542 10543 10544 10546 10550 10554 10559 10564 10571 10577 10583 10589 10594 10599 10603 10608 10613 10619 10624 10629 10633 10636 10639 10640 10642 10645 10651 10656 10662 10666 10669 10673 10677 10680 10682 10685 10688 10692 10695 10700 10705 10709 10713 10716 10720 10724 10728 10730 10733 10735 10739 10741 10742 10744 10747 10749 10751 10753 10755 10757 10758 10760 10763 10764 10766 10766 10768 10769 10770 10770 10770 10770 10770 10770 10770 10770 10770 10770 10771 10772
10535 10536 10537 10537 10538 10539 10540 10542 10544 10546 10551 10555 10560 10567 10573 10580 10586 10590 10594 10599 10603 10608 10614 10619 10623 10627 10630 10633 10635 10637 10640 10645 10652 10658 10661 10663 10667 10672 10675 10678 10682 10685 10689 10693 10697 10701 10705 10709 10712 10716 10720 10724 10727 10730 10733 10735 10738 10739 10741 10743 10745 10747 10749 10751 10753 10754 10757 10759 10760 10762 10763 10764 10766 10767 10768 10768 10768 10768 10768 10768 10768 10768 10768 10769 10770
10533 10533 10534 10534 10535 10536 10537 10539 10540 10543 10547 10551 10557 10563 10569 10576 10582 10587 10590 10595 10599 10604 10609 10614 10618 10622 10625 10628 10631 10634 10637 10643 10649 10653 10656 10660 10663 10667 10671 10675 10679 10683 10687 10691 10694 10697 10701 10704 10708 10712 10716 10719 10723 10726 10728 10731 10734 10735 10737 10739 10741 10743 10745 10747 10749 10751 10753 10755 10757 10758 10760 10761 10762 10763 10765 10765 10765 10765 10765 10765 10766 10766 10766 10767 10767
10531 10531 10530 10531 10532 10533 10534 10535 10537 10539 10543 10547 10552 10559 10565 10572 10578 10583 10586 10590 10595 10599 10604 10609 10613 10617 10621 10624 10627 10631 10635 10640 10645 10648 10652 10656 10660 10663 10667 10671 10675 10680 10683 10687 10690 10692 10695 10699 10702 10707 10711 10715 10718 10721 10724 10727 10729 10732 10734 10736 10738 10740 10742 10744 10745 10747 10749 10751 10753 10754 10756 10758 10759 10760 10761 10762 10763 10763 10763 10763 10763 10764 10764 10764 10765
10529 10528 10528 10528 10529 10530 10531 10532 10533 10535 10538 10543 10548 10554 10561 10568 10574 10578 10582 10586 10591 10595 10600 10605 10609 10613 10616 10620 10624 10628 10632 10636 10640 10644 10648 10652 10655 10660 10663 10667 10672 10675 10678 10682 10685 10687 10691 10694 10698 10702 10706 10710 10713 10717 10720 10723 10726 10728 10730 10732 10735 10738 10740 10742 10743 10743 10745 10747 10749 10751 10753 10754 10756 10756 10758 10759 10760 10760 10760 10760 10761 10761 10761 10762 10763
10526 10526 10526 10526 10526 10527 10527 10528 10529 10531 10534 10538 10543 10549 10556 10563 10569 10574 10579 10583 10587 10592 10597 10602 10606 10609 10613 10617 10621 10624 10628 10632 10636 10640 10644 10648 10651 10655 10659 10664 10667 10670 10674 10677 10680 10685 10688 10691 10695 10698 10702 10706 10709 10713 10716 10719 10722 10725 10727 10729 10732 10735 10738 10740 10741 10741 10742 10744 10746 10748 10749 10751 10752 10754 10755 10756 10757 10757 10758 10758 10758 10758 10759 10760 10760
10524 10524 10524 10523 10523 10524 10524 10525 10526 10527 10530 10533 10538 10544 10551 10558 10564 10569 10574 10579 10584 10589 10594 10598 10602 10605 10609 10612 10616 10620 10624 10628 10632 10636 10641 10644 10648 10652 10656 10660 10663 10666 10669 10673 10677 10680 10684 10687 10691 10694 10697 10701 10705 10709 10712 10715 10719 10721 10723 10726 10729 10732 10734 10736 10737 10738 10740 10741 10743 10745 10745 10747 10749 10751 10752 10753 10754 10754 10755 10755 10756 10756 10757 10757 10758
10521 10521 10521 10521 10521 10521 10521 10522 10523 10524 10526 10529 10533 10538 10545 10552 10558 10564 10569 10574 10579 10584 10589 10593 10598 10602 10605 10608 10612 10615 10619 10623 10628 10633 10637 10641 10644 10648 10652 10656 10659 10662 10665 10669 10673 10675 10678 10682 10686 10689 10693 10697 10702 10706 10709 10713 10715 10717 10718 10721 10724 10727 10730 10731 10733 10735 10737 10739 10741 10742 10742 10742 10745 10747 10749 10750 10751 10751 10752 10752 10753 10754 10755 10755 10756
10518 10518 10518 10518 10518 10518 10519 10519 10520 10521 10523 10525 10529 10533 10539 10546 10553 10558 10563 10569 10574 10579 10583 10588 10593 10597 10601 10604 10608 10611 10614 10619 10624 10629 10633 10636 10640 10644 10647 10651 10655 10658 10661 10665 10669 10671 10674 10678 10682 10685 10689 10693 10698 10702 10706 10709 10711 10713 10715 10717 10720 10723 10726 10727 10729 10730 10733 10736 10738 10739 10738 10738 10741 10743 10745 10747 10748 10748 10749 10749 10750 10752 10752 10753 10754
10514 10514 10515 10515 10515 10515 10516 10516 10517 10518 10519 10522 10524 10528 10533 10539 10546 10552 10558 10563 10568 10573 10578 10583 10588 10592 10596 10599 10603 10606 10610 10615 10620 10624 10628 10632 10636 10639 10643 10647 10650 10654 10658 10661 10664 10667 10670 10674 10677 10681 10684 10688 10693 10697 10700 10704 10707 10710 10712 10714 10717 10720 10722 10723 10724 10725 10728 10732 10734 10735 10734 10734 10736 10739 10741 10743 10745 10746 10746 10747 10748 10749 10750 10750 10751
10511 10511 10511 10512 10513 10512 10513 10513 10514 10514 10516 10518 10520 10523 10527 10532 10539 10545 10551 10557 10562 10566 10571 10577 10582 10586 10590 10594 10598 10601 10605 10610 10615 10620 10624 10627 10630 10634 10638 10641 10645 10649 10653 10657 10660 10663 10667 10670 10673 10676 10680 10683 10687 10690 10693 10697 10701 10704 10707 10710 10713 10716 10717 10718 10719 10721 10723 10727 10729 10730 10730 10730 10731 10734 10736 10739 10742 10743 10744 10744 10745 10746 10747 10748 10748
10507 10507 10508 10509 10510 10510 10510 10510 10510 10511 10512 10514 10517 10519 10522 10526 10531 10538 10544 10550 10555 10560 10565 10570 10576 10581 10585 10589 10593 10596 10600 10605 10610 10615 10619 10622 10625 10629 10633 10636 10640 10645 10648 10652 10656 10659 10662 10665 10669 10672 10676 10679 10682 10685 10688 10691 10694 10698 10701 10704 10708 10710 10712 10714 10716 10717 10720 10723 10725 10725 10725 10726 10727 10729 10732 10735 10738 10740 10741 10741 10742 10743 10744 10745 10746
10505 10505 10505 10506 10506 10506 10507 10507 10507 10508 10509 10511 10513 10515 10518 10521 10525 10530 10536 10542 10548 10553 10558 10563 10569 10574 10578 10582 10587 10591 10594 10599 10604 10609 10613 10616 10620 10624 10627 10631 10636 10640 10644 10648 10651 10655 10658 10661 10664 10669 10672 10675 10678 10681 10683 10686 10689 10692 10695 10698 10702 10705 10706 10708 10711 10713 10716 10718 10720 10720 10720 10721 10723 10725 10727 10730 10733 10735 10737 10738 10738 10739 10740 10741 10742
10502 10502 10502 10503 10503 10503 10503 10504 10504 10505 10506 10507 10509 10511 10513 10516 10519 10524 10529 10534 10540 10546 10551 10557 10562 10568 10572 10577 10581 10586 10590 10594 10599 10604 10608 10610 10614 10618 10621 10626 10631 10635 10639 10643 10647 10650 10653 10656 10660 10664 10668 10671 10674 10676 10678 10681 10684 10687 10690 10693 10696 10699 10700 10702 10704 10707 10710 10712 10714 10715 10716 10717 10719 10721 10723 10726 10728 10731 10733 10734 10735 10735 10736 10737 10739
10500 10499 10499 10499 10500 10500 10500 10501 10501 10502 10503 10504 10505 10507 10509 10512 10515 10518 10522 10527 10533 10538 10544 10550 10556 10561 10566 10571 10576 10581 10585 10590 10594 10599 10603 10605 10609 10612 10616 10620 10625 10629 10634 10639 10642 10645 10649 10651 10655 10660 10664 10666 10669 10671 10674 10677 10680 10682 10685 10688 10690 10692 10694 10695 10697 10700 10704 10707 10710 10711 10711 10713 10715 10717 10720 10722 10724 10726 10728 10730 10731 10731 10732 10733 10734
10497 10496 10496 10496 10496 10497 10497 10497 10498 10498 10499 10501 10502 10503 10505 10508 10511 10513 10517 10521 10526 10531 10537 10543 10549 10555 10560 10565 10570 10575 10579 10583 10588 10593 10597 10600 10603 10607 10611 10615 10619 10623 10629 10633 10637 10640 10644 10647 10650 10654 10658 10661 10664 10667 10669 10672 10675 10677 10680 10682 10684 10686 10688 10690 10693 10695 10699 10703 10705 10706 10707 10708 10711 10714 10715 10717 10719 10721 10723 10725 10727 10728 10728 10729 10730
10494 10494 10493 10493 10493 10493 10493 10493 10494 10494 10496 10497 10498 10499 10501 10504 10506 10509 10512 10515 10519 10524 10530 10536 10542 10547 10552 10557 10562 10567 10572 10576 10581 10586 10590 10594 10598 10601 10605 10609 10613 10618 10623 10628 10632 10635 10638 10642 10645 10648 10652 10655 10658 10662 10664 10667 10670 10672 10675 10676 10678 10680 10683 10686 10689 10692 10695 10698 10699 10700 10701 10704 10707 10709 10711 10712 10715 10716 10718 10721 10723 10724 10725 10725 10727
10491 10490 10490 10490 10489 10489 10489 10489 10489 10490 10491 10493 10494 10496 10498 10500 10502 10505 10508 10511 10514 10518 10523 10528 10534 10539 10545 10550 10555 10560 10565 10570 10574 10579 10584 10588 10591 10595 10599 10603 10607 10611 10617 10622 10627 10630 10633 10636 10639 10642 10646 10649 10652 10656 10659 10661 10664 10667 10669 10670 10673 10676 10679 10681 10684 10687 10690 10692 10693 10694 10695 10699 10702 10704 10706 10707 10709 10711 10714 10716 10718 10720 10721 10723 10724
10487 10486 10486 10486 10485 10485 10485 10484 10485 10486 10487 10489 10490 10492 10493 10495 10497 10500 10503 10506 10509 10512 10516 10521 10527 10532 10538 10543 10548 10553 10558 10563 10568 10572 10577 10581 10585 10588 10592 10596 10600 10605 10609 10615 10620 10624 10627 10631 10634 10636 10640 10643 10646 10650 10652 10655 10658 10660 10662 10664 10668 10671 10673 10674 10677 10680 10683 10686 10688 10689 10690 10693 10696 10699 10701 10702 10704 10707 10709 10711 10713 10715 10717 10719 10721
10482 10482 10482 10481 10481 10481 10480 10480 10480 10481 10483 10484 10486 10487 10489 10491 10493 10495 10498 10500 10503 10507 10510 10515 10520 10525 10530 10536 10541 10545 10550 10555 10560 10565 10570 10574 10578 10582 10586 10590 10594 10598 10602 10607 10613 10617 10621 10625 10628 10630 10634 10637 10640 10643 10646 10649 10651 10653 10655 10657 10661 10664 10665 10667 10670 10673 10675 10678 10681 10684 10686 10688 10690 10693 10695 10696 10699 10701 10704 10706 10708 10710 10713 10715 10717
10478 10477 10477 10476 10476 10476 10476 10476 10476 10477 10479 10480 10481 10483 10484 10486 10488 10490 10493 10495 10498 10501 10505 10509 10514 10519 10523 10528 10533 10538 10543 10548 10553 10558 10562 10567 10572 10576 10580 10584 10588 10592 10595 10599 10605 10610 10614 10619 10622 10624 10627 10630 10634 10637 10640 10643 10645 10646 10647 10649 10653 10656 10657 10659 10663 10666 10668 10670 10673 10677 10680 10683 10684 10686 10688 10690 10692 10695 10698 10701 10703 10705 10708 10710 10713
10474 10473 10472 10471 10471 10471 10471 10472 10472 10473 10475 10476 10477 10478 10480 10482 10484 10486 10488 10491 10493 10496 10500 10504 10508 10512 10517 10521 10526 10531 10535 10540 10545 10550 10554 10559 10564 10568 10573 10576 10580 10584 10587 10591 10596 10601 10607 10612 10615 10618 10620 10623 10628 10631 10633 10635 10638 10640 10640 10641 10644 10647 10649 10651 10654 10657 10660 10664 10666 10669 10673 10675 10677 10679 10681 10683 10685 10688 10692 10695 10697 10700 10702 10705 10708
10470 10469 10468 10467 10467 10467 10467 10467 10468 10469 10471 10472 10473 10474 10476 10478 10480 10482 10484 10486 10489 10491 10494 10498 10502 10506 10510 10514 10518 10523 10527 10532 10537 10541 10546 10551 10555 10560 10564 10568 10572 10576 10579 10583 10588 10593 10599 10603 10608 10611 10614 10617 10620 10623 10626 10628 10631 10633 10634 10635 10637 10639 10640 10643 10646 10649 10652 10655 10658 10661 10664 10667 10669 10671 10673 10676 10678 10681 10685 10688 10691 10693 10697 10700 10703
10466 10465 10464 10463 10463 10462 10463 10463 10464 10465 10466 10468 10469 10470 10471 10473 10475 10477 10480 10482 10484 10487 10490 10493 10496 10500 10503 10507 10511 10515 10520 10525 10529 10533 10538 10543 10547 10551 10556 10560 10564 10568 10572 10576 10581 10585 10589 10594 10599 10604 10608 10610 10613 10615 10617 10620 10624 10626 10627 10629 10630 10631 10633 10635 10638 10641 10644 10646 10650 10653 10656 10658 10661 10664 10666 10669 10672 10675 10678 10681 10684 10687 10691 10694 10697
10463 10462 10460 10459 10459 10459 10459 10459 10460 10461 10462 10463 10465 10466 10467 10468 10470 10473 10475 10478 10480 10483 10486 10488 10491 10494 10497 10500 10504 10508 10513 10517 10521 10526 10530 10534 10539 10543 10547 10551 10556 10560 10564 10569 10572 10576 10580 10584 10590 10595 10600 10603 10606 10607 10609 10611 10615 10618 10620 10622 10623 10624 10626 10629 10632 10634 10636 10639 10642 10645 10648 10652 10655 10657 10659 10662 10665 10668 10671 10673 10676 10680 10684 10687 10691
10460 10459 10457 10456 10455 10455 10455 10455 10456 10457 10458 10459 10460 10461 10463 10464 10466 10469 10471 10473 10476 10478 10481 10484 10486 10489 10491 10494 10497 10501 10505 10509 10513 10517 10521 10525 10529 10533 10537 10542 10546 10550 10555 10559 10563 10567 10570 10575 10580 10585 10590 10594 10597 10599 10600 10602 10605 10608 10611 10613 10614 10616 10619 10623 10626 10628 10630 10632 10634 10636 10640 10644 10646 10648 10650 10653 10657 10660 10663 10666 10668 10672 10676 10679 10683
10458 10456 10454 10453 10452 10452 10452 10452 10452 10453 10454 10455 10456 10457 10458 10460 10462 10464 10467 10469 10471 10474 10476 10479 10481 10484 10486 10488 10490 10493 10497 10501 10505 10508 10512 10516 10520 10524 10528 10532 10536 10540 10544 10548 10553 10557 10561 10565 10570 10575 10580 10585 10588 10590 10592 10594 10596 10598 10601 10603 10605 10608 10612 10616 10618 10620 10622 10624 10625 10628 10633 10636 10637 10639 10643 10645 10648 10651 10654 10657 10661 10665 10668 10672 10676
10455 10454 10452 10450 10449 10449 10449 10449 10449 10449 10450 10451 10452 10453 10454 10456 10458 10460 10462 10464 10466 10468 10471 10473 10476 10478 10480 10482 10485 10488 10491 10494 10497 10500 10504 10507 10511 10515 10518 10522 10525 10528 10533 10537 10541 10546 10550 10554 10558 10563 10568 10573 10577 10580 10583 10586 10587 10589 10590 10592 10596 10601 10604 10607 10610 10611 10614 10617 10618 10620 10624 10626 10627 10631 10635 10637 10639 10641 10644 10649 10653 10657 10660 10664 10668
10452 10450 10449 10448 10447 10446 10446 10446 10446 10446 10447 10448 10449 10450 10451 10452 10454 10456 10457 10459 10461 10463 10466 10468 10470 10473 10475 10478 10480 10483 10485 10488 10490 10493 10496 10499 10503 10506 10509 10512 10515 10518 10522 10525 10529 10533 10537 10541 10546 10550 10555 10561 10565 10568 10572 10575 10577 10579 10580 10582 10586 10590 10593 10597 10601 10603 10605 10609 10611 10611 10612 10614 10617 10622 10626 10628 10630 10631 10635 10639 10643 10648 10652 10657 10660
10449 10447 10445 10444 10444 10444 10444 10443 10443 10443 10443 10444 10445 10446 10447 10449 10450 10451 10453 10454 10456 10458 10461 10463 10465 10468 10470 10473 10476 10478 10480 10482 10484 10487 10489 10491 10494 10497 10501 10503 10506 10508 10511 10514 10518 10521 10524 10528 10533 10537 10542 10548 10552 10556 10560 10564 10566 10568 10569 10572 10575 10579 10581 10586 10592 10594 10596 10600 10602 10602 10602 10603 10607 10612 10616 10618 10620 10623 10626 10630 10633 10637 10643 10650 10653
10446 10444 10443 10442 10441 10441 10441 10441 10440 10440 10440 10441 10442 10443 10444 10445 10446 10447 10449 10450 10451 10453 10456 10458 10461 10463 10465 10468 10470 10472 10474 10476 10479 10481 10483 10484 10487 10489 10492 10494 10496 10499 10501 10504 10507 10509 10512 10516 10520 10524 10528 10533 10539 10542 10546 10550 10553 10555 10557 10561 10565 10568 10570 10576 10582 10584 10586 10590 10593 10592 10592 10593 10597 10601 10605 10607 10610 10614 10618 10622 10624 10628 10635 10643 10643
10444 10442 10440 10439 10438 10438 10437 10437 10437 10437 10437 10438 10439 10440 10441 10442 10443 10444 10445 10446 10447 10449 10451 10454 10456 10458 10460 10462 10464 10466 10468 10470 10473 10474 10476 10478 10480 10481 10483 10485 10487 10489 10491 10494 10496 10499 10501 10504 10508 10511 10514 10518 10523 10527 10531 10535 10539 10541 10544 10549 10554 10558 10561 10565 10569 10573 10575 10580 10583 10583 10582 10584 10587 10589 10593 10595 10597 10601 10607 10612 10616 10621 10629 10633 10630
10441 10440 10438 10436 10436 10435 10434 10434 10434 10433 10434 10435 10435 10436 10437 10438 10439 10440 10441 10442 10444 10445 10447 10449 10451 10452 10454 10456 10458 10459 10461 10464 10466 10468 10469 10471 10472 10474 10475 10477 10478 10480 10482 10484 10487 10489 10491 10493 10495 10498 10500 10503 10507 10511 10515 10520 10525 10528 10530 10535 10542 10549 10552 10553 10555 10559 10564 10569 10574 10575 10575 10576 10577 10578 10581 10582 10584 10589 10595 10602 10608 10615 10620 10619 10615
10438 10436 10435 10433 10433 10432 10432 10431 10430 10430 10430 10431 10432 10432 10433 10434 10435 10436 10437 10439 10440 10442 10443 10445 10446 10447 10448 10450 10452 10453 10455 10457 10459 10461 10462 10464 10465 10466 10467 10469 10470 10472 10474 10475 10477 10478 10480 10481 10483 10485 10487 10490 10493 10497 10499 10503 10509 10513 10516 10522 10530 10537 10540 10540 10543 10548 10553 10558 10563 10565 10565 10565 10566 10567 10568 10569 10573 10579 10586 10594 10603 10608 10610 10607 10605
10435 10433 10432 10430 10429 10429 10429 10428 10428 10427 10427 10427 10428 10429 10429 10430 10431 10432 10433 10435 10436 10437 10439 10440 10441 10442 10444 10445 10446 10447 10449 10451 10453 10454 10455 10457 10458 10459 10460 10461 10462 10464 10465 10466 10467 10468 10469 10470 10472 10474 10476 10477 10480 10484 10486 10487 10492 10497 10501 10506 10514 10520 10524 10526 10531 10536 10540 10544 10548 10550 10551 10551 10552 10554 10555 10557 10562 10567 10574 10583 10592 10596 10597 10597 10599
10433 10431 10429 10427 10426 10426 10426 10426 10425 10424 10424 10424 10425 10425 10426 10426 10427 10427 10429 10430 10432 10433 10434 10435 10437 10438 10439 10440 10441 10442 10443 10445 10447 10448 10449 10450 10451 10452 10453 10454 10454 10455 10456 10457 10458 10458 10458 10459 10461 10463 10464 10466 10468 10471 10473 10474 10477 10480 10484 10489 10494 10500 10504 10509 10515 10521 10524 10526 10529 10532 10535 10536 10537 10539 10542 10544 10547 10553 10561 10571 10578 10581 10583 10584 10588
10430 10428 10427 10425 10424 10423 10423 10422 10422 10422 10421 10421 10421 10422 10422 10422 10423 10424 10425 10426 10428 10429 10430 10431 10432 10433 10434 10435 10435 10436 10437 10439 10440 10442 10443 10444 10444 10445 10445 10446 10446 10447 10448 10448 10448 10448 10447 10448 10449 10450 10452 10454 10455 10457 10460 10462 10464 10467 10470 10473 10476 10480 10484 10489 10496 10503 10507 10509 10511 10513 10516 10520 10524 10527 10529 10531 10534 10538 10548 10557 10561 10564 10567 10569 10574
10428 10426 10424 10423 10421 10421 10420 10419 10419 10419 10419 10418 10418 10418 10419 10419 10420 10420 10421 10422 10423 10424 10425 10426 10426 10427 10428 10429 10430 10431 10432 10433 10434 10435 10437 10437 10437 10437 10437 10438 10438 10438 10438 10438 10438 10437 10437 10437 10437 10438 10440 10441 10443 10444 10446 10449 10451 10454 10457 10459 10461 10464 10468 10473 10479 10485 10489 10491 10494 10496 10498 10503 10509 10513 10515 10518 10522 10525 10533 10540 10544 10547 10551 10554 10558
10426 10423 10422 10421 10419 10418 10418 10417 10417 10416 10416 10416 10415 10415 10415 10416 10416 10417 10417 10418 10419 10420 10421 10421 10422 10422 10422 10423 10424 10424 10425 10426 10427 10428 10429 10430 10430 10430 10429 10429 10429 10429 10428 10428 10427 10427 10427 10427 10427 10428 10429 10430 10432 10433 10434 10436 10438 10440 10443 10445 10448 10450 10454 10459 10464 10469 10472 10476 10480 10483 10485 10487 10493 10499 10503 10507 10511 10513 10519 10525 10528 10530 10534 10537 10540
10424 10421 10420 10418 10417 10416 10416 10415 10414 10414 10414 10413 10413 10412 10412 10412 10413 10413 10414 10414 10415 10415 10416 10417 10417 10417 10417 10417 10418 10418 10419 10419 10420 10421 10422 10423 10423 10422 10421 10420 10420 10419 10418 10418 10418 10418 10418 10419 10419 10419 10420 10421 10422 10424 10424 10425 10427 10428 10430 10433 10435 10438 10441 10445 10449 10452 10457 10462 10466 10471 10474 10476 10481 10488 10492 10495 10499 10501 10504 10509 10512 10513 10517 10522 10526
10423 10420 10418 10416 10415 10414 10414 10413 10412 10412 10412 10411 10410 10410 10409 10409 10409 10410 10410 10411 10411 10411 10412 10412 10412 10412 10413 10412 10412 10412 10412 10413 10413 10414 10415 10415 10415 10415 10413 10412 10411 10410 10410 10410 10410 10410 10410 10410 10411 10411 10412 10413 10414 10415 10416 10417 10418 10418 10420 10421 10424 10426 10428 10431 10434 10438 10443 10449 10454 10459 10463 10465 10469 10474 10477 10481 10485 10487 10489 10493 10496 10500 10504 10509 10515
10423 10419 10417 10415 10414 10413 10412 10411 10410 10410 10410 10409 10409 10408 10407 10407 10406 10406 10407 10407 10407 10407 10407 10408 10408 10408 10408 10408 10407 10407 10407 10407 10407 10407 10408 10408 10408 10407 10406 10404 10403 10403 10403 10403 10403 10403 10403 10403 10404 10405 10405 10406 10407 10407 10408 10410 10410 10411 10411 10413 10414 10416 10418 10420 10423 10427 10431 10436 10442 10446 10449 10453 10457 10461 10463 10467 10471 10474 10476 10479 10482 10487 10492 10497 10502
10423 10420 10416 10414 10412 10411 10410 10409 10408 10408 10407 10407 10407 10406 10406 10405 10404 10404 10404 10404 10404 10403 10403 10403 10403 10403 10403 10403 10402 10402 10402 10401 10401 10401 10401 10401 10401 10400 10399 10398 10397 10396 10396 10397 10397 10397 10398 10398 10398 10398 10399 10400 10401 10401 10402 10403 10404 10404 10405 10405 10406 10408 10410 10412 10415 10418 10421 10426 10430 10434 10437 10441 10445 10447 10449 10453 10458 10462 10463 10464 10466 10471 10477 10481 10485